Home   Weather   Mahón   Past weeks

Flag for Spain Past Weather in Mahón, Menorca, Spain — Yesterday and Last 2 Weeks

Now
63 °F

Mild.


Feels Like: 63 °F
Forecast: 65 / 76 °F
Wind: 2 mph from Northeast

Location: Menorca / Mahon

Current Time: Sep 29, 2016 at 5:23:00 AM

Latest Report: Sep 29, 2016 at 4:00 AM


Visibility: N/A

Pressure: 30.35 "Hg

Humidity: 87%

Dew Point: 59 °F

Location of MahónLocation

Past Weather in Mahón — Graph

°F

Mahón Temperature Yesterday

Maximum temperature yesterday: 80 °F (at 12:00 PM)
Minimum temperature yesterday: 64 °F (at 4:00 AM)
Average temperature yesterday: 71 °F

High & Low Weather Summary for the Past Weeks

 TemperatureHumidityPressure
High83 °F (Sep 14, 2:00 PM)99% (Sep 21, 3:00 AM)30.38 "Hg (Sep 21, 3:00 AM)
Low59 °F (Sep 19, 1:00 AM)33% (Sep 16, 4:00 PM)29.82 "Hg (Sep 14, 9:00 AM)
Average71 °F69%30.09 "Hg
* Reported Sep 14 4:00 AM — Sep 29 4:00 AM, Mahón, Weather by CustomWeather, © 2016

Note: Actual official high and low records may vary slightly from our data, if they occured in-between our weather recording intervals... More about our weather records

Advertising

Mahón Weather History for the Previous 24 Hours

Scroll right to see more
 ConditionsComfort  
Time TempWeatherWind HumidityBarometerVisibility
4:00 AM
Thu, Sep 29
63 °FMild.2 mph87%30.35 "HgN/A
3:00 AM65 °FMild.2 mph81%30.37 "HgN/A
2:00 AM67 °FMild.3 mph77%30.38 "HgN/A
1:00 AM68 °FMild.5 mph76%30.38 "HgN/A
12:00 AM68 °FMild.3 mph74%30.38 "HgN/A
11:00 PM
Wed, Sep 28
68 °FPassing clouds.3 mph75%30.37 "Hg7 mi
10:00 PM69 °FMild.3 mph74%30.37 "HgN/A
9:00 PM70 °FMild.7 mph76%30.35 "HgN/A
8:00 PM71 °FPassing clouds.6 mph74%30.34 "Hg11 mi
7:00 PM74 °FMild.10 mph63%30.33 "HgN/A
6:00 PM77 °FMild.14 mph55%30.32 "HgN/A
5:00 PM78 °FPassing clouds.14 mph54%30.31 "Hg16 mi
4:00 PM78 °FWarm.15 mph57%30.32 "HgN/A
3:00 PM78 °FScattered clouds.16 mph59%30.32 "Hg10 mi
2:00 PM78 °FPartly sunny.15 mph58%30.33 "Hg7 mi
1:00 PM78 °FWarm.17 mph55%30.33 "HgN/A
12:00 PM80 °FWarm.17 mph57%30.33 "HgN/A
11:00 AM76 °FPartly sunny.17 mph64%30.31 "Hg11 mi
10:00 AM71 °FMild.16 mph74%30.30 "HgN/A
9:00 AM70 °FPartly sunny.15 mph73%30.27 "Hg11 mi
8:00 AM69 °FScattered clouds.10 mph74%30.26 "Hg11 mi
7:00 AM68 °FMild.12 mph71%30.26 "HgN/A
6:00 AM68 °FMild.10 mph76%30.25 "HgN/A
5:00 AM65 °FMild.8 mph84%30.25 "HgN/A
Weather by CustomWeather, © 2016

See weather overviewHow to use our weather pages